Time,TemperatureF,DewpointF,PressureIn,WindDirection,WindDirectionDegrees,WindSpeedMPH,WindSpeedGustMPH,Humidity,HourlyPrecipIn,Conditions,Clouds,dailyrainin,SoftwareType,DateUTC
2013-03-28 07:46:00,24.4,23.9,29.92,NW,315,0.0,-999.0,98,-99.99,,,0.00,Acu-Link.com,2013-03-28 13:46:00,
2013-03-28 08:01:00,30.7,30.2,29.93,East,90,0.0,-999.0,98,-99.99,,,0.00,Acu-Link.com,2013-03-28 14:01:00,
2013-03-28 08:17:00,35.6,29.7,29.92,NNE,22,0.0,-999.0,79,-99.99,,,0.00,Acu-Link.com,2013-03-28 14:17:00,
2013-03-28 08:32:00,35.2,27.4,29.92,East,90,3.2,-999.0,73,-99.99,,,0.00,Acu-Link.com,2013-03-28 14:32:00,
2013-03-28 08:47:00,36.1,29.0,29.94,NNE,22,3.2,-999.0,75,-99.99,,,0.00,Acu-Link.com,2013-03-28 14:47:00,
2013-03-28 09:02:00,35.8,27.7,29.93,ENE,67,5.3,-999.0,72,-99.99,,,0.00,Acu-Link.com,2013-03-28 15:02:00,
2013-03-28 09:17:00,36.9,28.0,29.93,SSE,157,2.7,-999.0,70,-99.99,,,0.00,Acu-Link.com,2013-03-28 15:17:00,
2013-03-28 09:33:00,37.8,26.0,29.92,North,0,2.2,-999.0,62,-99.99,,,0.00,Acu-Link.com,2013-03-28 15:33:00,
2013-03-28 09:48:00,40.6,25.7,29.93,East,90,2.7,-999.0,55,-99.99,,,0.00,Acu-Link.com,2013-03-28 15:48:00,
2013-03-28 10:03:00,42.6,27.1,29.92,East,90,4.7,-999.0,54,-99.99,,,0.00,Acu-Link.com,2013-03-28 16:03:00,
2013-03-28 10:18:00,43.3,26.4,29.92,NW,315,2.2,-999.0,51,-99.99,,,0.00,Acu-Link.com,2013-03-28 16:18:00,
2013-03-28 10:33:00,45.9,27.8,29.92,ENE,67,5.8,-999.0,49,-99.99,,,0.00,Acu-Link.com,2013-03-28 16:33:00,
2013-03-28 10:49:00,45.7,26.1,29.92,ENE,67,2.2,-999.0,46,-99.99,,,0.00,Acu-Link.com,2013-03-28 16:49:00,
2013-03-28 11:04:00,48.0,25.4,29.92,NE,45,6.8,-999.0,41,-99.99,,,0.00,Acu-Link.com,2013-03-28 17:04:00,
2013-03-28 11:19:00,47.7,25.2,29.91,ENE,67,1.1,-999.0,41,-99.99,,,0.00,Acu-Link.com,2013-03-28 17:19:00,
2013-03-28 11:34:00,48.9,28.0,29.91,ENE,67,4.2,-999.0,44,-99.99,,,0.00,Acu-Link.com,2013-03-28 17:34:00,
2013-03-28 11:50:00,51.6,27.5,29.91,NNE,22,4.7,-999.0,39,-99.99,,,0.00,Acu-Link.com,2013-03-28 17:50:00,
2013-03-28 12:05:00,53.1,27.5,29.89,NNE,22,4.7,-999.0,37,-99.99,,,0.00,Acu-Link.com,2013-03-28 18:05:00,
2013-03-28 12:20:00,54.7,27.6,29.88,NE,45,5.3,-999.0,35,-99.99,,,0.00,Acu-Link.com,2013-03-28 18:20:00,
2013-03-28 12:35:00,56.8,28.7,29.88,NE,45,4.7,-999.0,34,-99.99,,,0.00,Acu-Link.com,2013-03-28 18:35:00,
2013-03-28 12:51:00,57.0,28.2,29.87,SSE,157,3.7,-999.0,33,-99.99,,,0.00,Acu-Link.com,2013-03-28 18:51:00,
2013-03-28 13:06:00,58.6,28.8,29.87,East,90,5.8,-999.0,32,-99.99,,,0.00,Acu-Link.com,2013-03-28 19:06:00,
2013-03-28 13:36:00,58.1,29.9,29.86,NNW,337,9.9,-999.0,34,-99.99,,,0.00,Acu-Link.com,2013-03-28 19:36:00,
2013-03-28 14:22:00,59.7,28.2,29.84,NE,45,3.7,-999.0,30,-99.99,,,0.00,Acu-Link.com,2013-03-28 20:22:00,
2013-03-28 14:37:00,56.8,27.3,29.83,South,180,2.2,-999.0,32,-99.99,,,0.00,Acu-Link.com,2013-03-28 20:37:00,
2013-03-28 14:53:00,58.6,28.1,29.83,NNW,337,2.7,-999.0,31,-99.99,,,0.00,Acu-Link.com,2013-03-28 20:53:00,
2013-03-28 15:08:00,55.0,30.5,29.83,West,270,6.3,-999.0,39,-99.99,,,0.00,Acu-Link.com,2013-03-28 21:08:00,
2013-03-28 15:23:00,56.7,30.7,29.82,NNW,337,9.4,-999.0,37,-99.99,,,0.00,Acu-Link.com,2013-03-28 21:23:00,
2013-03-28 15:39:00,56.7,30.1,29.82,NNE,22,8.3,-999.0,36,-99.99,,,0.00,Acu-Link.com,2013-03-28 21:39:00,
2013-03-28 15:54:00,58.5,29.5,29.82,NE,45,4.2,-999.0,33,-99.99,,,0.00,Acu-Link.com,2013-03-28 21:54:00,
2013-03-28 16:09:00,57.2,29.1,29.81,West,270,6.8,-999.0,34,-99.99,,,0.00,Acu-Link.com,2013-03-28 22:09:00,
2013-03-28 16:25:00,57.9,30.4,29.81,ENE,67,6.3,-999.0,35,-99.99,,,0.00,Acu-Link.com,2013-03-28 22:25:00,
2013-03-28 16:40:00,57.4,28.5,29.80,NNE,22,1.7,-999.0,33,-99.99,,,0.00,Acu-Link.com,2013-03-28 22:40:00,
2013-03-28 16:55:00,54.5,27.4,29.80,ENE,67,6.3,-999.0,35,-99.99,,,0.00,Acu-Link.com,2013-03-28 22:55:00,
2013-03-28 17:11:00,54.3,28.6,29.81,NE,45,4.7,-999.0,37,-99.99,,,0.00,Acu-Link.com,2013-03-28 23:11:00,
2013-03-28 17:26:00,54.3,27.9,29.81,ENE,67,4.7,-999.0,36,-99.99,,,0.00,Acu-Link.com,2013-03-28 23:26:00,
2013-03-28 17:41:00,54.5,28.1,29.81,NE,45,7.3,-999.0,36,-99.99,,,0.00,Acu-Link.com,2013-03-28 23:41:00,
2013-03-28 18:11:00,53.8,27.5,29.81,ENE,67,4.7,-999.0,36,-99.99,,,0.00,Acu-Link.com,2013-03-29 00:11:00,
2013-03-28 18:27:00,53.6,27.3,29.81,ESE,112,2.2,-999.0,36,-99.99,,,0.00,Acu-Link.com,2013-03-29 00:27:00,
2013-03-28 18:42:00,52.3,28.1,29.81,ENE,67,1.7,-999.0,39,-99.99,,,0.00,Acu-Link.com,2013-03-29 00:42:00,
2013-03-28 18:57:00,50.2,28.6,29.82,ENE,67,0.0,-999.0,43,-99.99,,,0.00,Acu-Link.com,2013-03-29 00:57:00,
2013-03-28 19:12:00,46.8,29.2,29.83,NNE,22,0.0,-999.0,50,-99.99,,,0.00,Acu-Link.com,2013-03-29 01:12:00,
2013-03-28 19:27:00,45.0,28.4,29.82,ENE,67,2.7,-999.0,52,-99.99,,,0.00,Acu-Link.com,2013-03-29 01:27:00,
2013-03-28 19:43:00,43.3,27.3,29.83,ENE,67,0.0,-999.0,53,-99.99,,,0.00,Acu-Link.com,2013-03-29 01:43:00,
2013-03-28 20:13:00,42.6,28.0,29.84,SSW,202,2.2,-999.0,56,-99.99,,,0.00,Acu-Link.com,2013-03-29 02:13:00,
2013-03-28 20:29:00,40.6,27.4,29.85,NW,315,0.0,-999.0,59,-99.99,,,0.00,Acu-Link.com,2013-03-29 02:29:00,
2013-03-28 20:44:00,40.3,28.3,29.85,NNE,22,3.7,-999.0,62,-99.99,,,0.00,Acu-Link.com,2013-03-29 02:44:00,
2013-03-28 20:59:00,39.4,28.3,29.86,WNW,292,0.0,-999.0,64,-99.99,,,0.00,Acu-Link.com,2013-03-29 02:59:00,
2013-03-28 21:14:00,36.9,28.4,29.86,NNE,22,3.2,-999.0,71,-99.99,,,0.00,Acu-Link.com,2013-03-29 03:14:00,
2013-03-28 21:30:00,36.9,28.4,29.88,WSW,247,0.0,-999.0,71,-99.99,,,0.00,Acu-Link.com,2013-03-29 03:30:00,
2013-03-28 21:45:00,36.5,28.0,29.88,WSW,247,0.0,-999.0,71,-99.99,,,0.00,Acu-Link.com,2013-03-29 03:45:00,
2013-03-28 22:00:00,35.4,27.6,29.88,SE,135,0.0,-999.0,73,-99.99,,,0.00,Acu-Link.com,2013-03-29 04:00:00,
2013-03-28 22:16:00,33.4,28.2,29.89,SW,225,0.0,-999.0,81,-99.99,,,0.00,Acu-Link.com,2013-03-29 04:16:00,
2013-03-28 23:17:00,30.6,28.8,29.90,SW,225,0.0,-999.0,93,-99.99,,,0.00,Acu-Link.com,2013-03-29 05:17:00,
2013-03-28 23:32:00,30.6,28.8,29.90,North,0,0.0,-999.0,93,-99.99,,,0.00,Acu-Link.com,2013-03-29 05:32:00,
2013-03-28 23:47:00,29.8,29.3,29.90,North,0,0.0,-999.0,98,-99.99,,,0.00,Acu-Link.com,2013-03-29 05:47:00,